Date String (YYYY-MM-DD hh:mm:ss) UTC,Instrument flags,Ambient pressure (hPa),Sample flow (lpm),Bypass flow (lpm),Sample temperature (°C),Ambient temperature (°C),ASC tube jacket temperature (°C),LED temperature (°C),Box temperature (°C),Sample RH (%),Span deviation,Mass concentration (μg/m³),Mass concentration (μg/m³),Mass concentration (μg/m³)
DateTimeUTC,F1_M11,P_M11,Q1_M11,Q2_M11,T1_M11,T2_M11,T3_M11,T4_M11,T5_M11,U1_M11,ZSPAN_M11,X2_M11,X0_M11,X1_M11
2021-10-01 03:00:00,,0833.9,4.99,0.00,29.0,28.2,00.0,38.1,30.8,21.6,0000.0,0004.10,0006.09,0003.87
2021-10-01 03:01:00,,0833.9,5.00,0.00,29.0,28.2,00.0,38.1,30.8,21.4,0000.0,0004.09,0006.06,0003.87
2021-10-01 03:02:00,,0833.9,5.01,0.00,29.0,28.2,00.0,38.1,30.8,21.5,0000.0,0004.09,0006.13,0003.87
2021-10-01 03:03:00,,0833.9,5.00,0.00,29.0,28.2,00.0,38.1,30.8,21.6,0000.0,0004.10,0006.18,0003.87
2021-10-01 03:04:00,,0833.9,4.99,0.00,29.0,28.2,00.0,38.1,30.8,21.7,0000.0,0004.08,0006.71,0003.86
2021-10-01 03:05:00,,0833.8,5.00,0.00,29.0,28.2,00.0,38.1,30.8,21.7,0000.0,0004.10,0007.04,0003.87
2021-10-01 03:06:00,,0833.8,5.00,0.00,29.1,28.2,00.0,38.1,30.8,21.7,0000.0,0004.15,0007.31,0003.87
2021-10-01 03:07:00,,0833.8,5.00,0.00,29.1,28.2,00.0,38.1,30.9,21.6,0000.0,0004.19,0007.42,0003.88
2021-10-01 03:08:00,,0833.8,4.99,0.00,29.1,28.2,00.0,38.1,30.8,21.8,0000.0,0004.22,0008.18,0003.89
2021-10-01 03:09:00,,0833.8,4.98,0.00,29.1,28.3,00.0,38.1,30.8,21.9,0000.0,0004.24,0008.21,0003.89
2021-10-01 03:10:00,,0833.7,5.01,0.00,29.1,28.3,00.0,38.1,30.8,21.9,0000.0,0004.24,0008.64,0003.90
2021-10-01 03:11:00,,0833.7,5.01,0.00,29.1,28.3,00.0,38.1,30.8,22.0,0000.0,0004.23,0008.59,0003.90
2021-10-01 03:12:00,,0833.7,5.00,0.00,29.1,28.3,00.0,38.1,30.8,22.0,0000.0,0004.22,0008.55,0003.88
2021-10-01 03:13:00,,0833.7,5.01,0.00,29.1,28.3,00.0,38.2,30.8,21.9,0000.1,0004.22,0008.60,0003.89
2021-10-01 03:14:00,,0833.7,5.00,0.00,29.1,28.3,00.0,38.2,30.9,22.0,0000.1,0004.23,0008.63,0003.90
2021-10-01 03:15:00,,0833.7,5.01,0.00,29.1,28.3,00.0,38.2,30.9,22.2,-000.2,0004.25,0008.34,0003.91
2021-10-01 03:16:00,,0833.7,5.00,0.00,29.1,28.3,00.0,38.2,30.9,22.2,-000.4,0004.23,0008.22,0003.90
2021-10-01 03:17:00,,0833.6,5.00,0.00,29.1,28.3,00.0,38.2,30.8,22.2,-000.1,0004.20,0008.13,0003.90
2021-10-01 03:18:00,,0833.6,5.00,0.00,29.1,28.3,00.0,38.2,30.8,22.1,-000.1,0004.17,0008.06,0003.89
2021-10-01 03:19:00,,0833.6,5.00,0.00,29.1,28.3,00.0,38.2,30.9,22.1,0000.2,0004.13,0007.28,0003.88
2021-10-01 03:20:00,,0833.6,5.01,0.00,29.1,28.3,00.0,38.2,30.9,22.2,0000.2,0004.13,0007.31,0003.87
2021-10-01 03:21:00,,0833.6,5.01,0.00,29.1,28.3,00.0,38.2,30.9,22.3,-000.1,0004.14,0006.71,0003.85
2021-10-01 03:22:00,,0833.6,4.99,0.00,29.1,28.3,00.0,38.2,30.9,22.5,-000.1,0004.13,0006.86,0003.85
2021-10-01 03:23:00,,0833.7,4.99,0.00,29.1,28.3,00.0,38.2,30.9,22.5,0000.2,0004.13,0006.99,0003.86
2021-10-01 03:24:00,,0833.6,5.01,0.00,29.1,28.3,00.0,38.2,30.9,22.5,0000.4,0004.13,0006.91,0003.84
2021-10-01 03:25:00,,0833.6,4.99,0.00,29.1,28.3,00.0,38.2,30.9,22.4,0000.1,0004.13,0006.90,0003.83
2021-10-01 03:26:00,,0833.6,5.00,0.00,29.2,28.3,00.0,38.2,30.9,22.3,0000.0,0004.11,0006.79,0003.81
2021-10-01 03:27:00,,0833.6,5.00,0.00,29.2,28.3,00.0,38.2,30.9,22.3,0000.0,0004.08,0006.70,0003.79
2021-10-01 03:28:00,,0833.6,5.00,0.00,29.2,28.3,00.0,38.2,30.9,22.2,0000.0,0004.09,0006.74,0003.79
2021-10-01 03:29:00,,0833.5,5.00,0.00,29.2,28.3,00.0,38.2,30.9,22.2,0000.0,0004.11,0006.81,0003.78
2021-10-01 03:30:00,,0833.5,5.01,0.00,29.2,28.3,00.0,38.3,30.9,22.2,-000.3,0004.11,0007.36,0003.79
2021-10-01 03:31:00,,0833.5,5.00,0.00,29.2,28.3,00.0,38.3,30.9,22.2,-000.4,0004.07,0007.94,0003.78
2021-10-01 03:32:00,,0833.6,5.01,0.00,29.2,28.3,00.0,38.3,30.9,22.3,0000.0,0004.04,0007.92,0003.76
2021-10-01 03:33:00,,0833.5,5.00,0.00,29.2,28.3,00.0,38.3,30.9,22.2,0000.0,0004.03,0008.18,0003.75
2021-10-01 03:34:00,,0833.5,5.00,0.00,29.2,28.3,00.0,38.3,30.9,22.2,0000.0,0004.03,0008.19,0003.75
2021-10-01 03:35:00,,0833.5,4.99,0.00,29.2,28.2,00.0,38.3,30.9,22.1,0000.0,0004.03,0008.20,0003.75
2021-10-01 03:36:00,,0833.6,4.99,0.00,29.2,28.3,00.0,38.3,30.9,22.2,0000.0,0004.01,0008.14,0003.75
2021-10-01 03:37:00,,0833.6,5.00,0.00,29.2,28.3,00.0,38.3,30.9,22.3,0000.0,0004.03,0008.16,0003.76
2021-10-01 03:38:00,,0833.5,5.01,0.00,29.2,28.3,00.0,38.3,30.9,22.2,0000.0,0004.07,0008.19,0003.78
2021-10-01 03:39:00,,0833.6,5.00,0.00,29.2,28.3,00.0,38.3,30.9,22.2,0000.0,0004.05,0008.13,0003.78
2021-10-01 03:40:00,,0833.6,5.01,0.00,29.2,28.3,00.0,38.3,30.9,22.2,0000.0,0004.04,0008.10,0003.79
2021-10-01 03:41:00,,0833.6,4.99,0.00,29.2,28.3,00.0,38.3,31.0,22.2,0000.0,0004.04,0007.80,0003.79
2021-10-01 03:42:00,,0833.5,5.00,0.00,29.2,28.3,00.0,38.3,31.0,22.0,0000.0,0004.05,0007.18,0003.80
2021-10-01 03:43:00,,0833.5,4.99,0.00,29.2,28.3,00.0,38.3,31.0,22.1,0000.0,0004.06,0007.70,0003.81
2021-10-01 03:44:00,,0833.5,5.00,0.00,29.2,28.3,00.0,38.3,31.0,22.1,0000.0,0004.08,0007.41,0003.82
2021-10-01 03:45:00,,0833.5,5.01,0.00,29.2,28.3,00.0,38.3,30.9,21.8,0000.0,0004.09,0007.60,0003.84
2021-10-01 03:46:00,,0833.4,5.00,0.00,29.2,28.3,00.0,38.3,31.0,21.7,0000.0,0004.10,0007.79,0003.85
2021-10-01 03:47:00,,0833.4,5.00,0.00,29.2,28.3,00.0,38.3,31.0,21.7,0000.0,0004.11,0007.80,0003.87
2021-10-01 03:48:00,,0833.4,5.00,0.00,29.2,28.3,00.0,38.3,31.0,21.7,0000.0,0004.11,0007.77,0003.89
2021-10-01 03:49:00,,0833.4,4.99,0.00,29.2,28.3,00.0,38.3,31.0,21.8,0000.0,0004.11,0008.05,0003.89
2021-10-01 03:50:00,,0833.5,5.01,0.00,29.2,28.3,00.0,38.3,31.0,21.8,0000.0,0004.10,0008.04,0003.89
2021-10-01 03:51:00,,0833.5,5.00,0.00,29.2,28.3,00.0,38.3,31.0,21.8,0000.0,0004.13,0008.08,0003.91
2021-10-01 03:52:00,,0833.5,4.99,0.00,29.2,28.3,00.0,38.3,31.0,21.6,0000.0,0004.16,0008.17,0003.93
2021-10-01 03:53:00,,0833.4,5.00,0.00,29.2,28.3,00.0,38.3,31.0,21.6,0000.0,0004.18,0008.82,0003.95
2021-10-01 03:54:00,,0833.4,5.01,0.00,29.2,28.3,00.0,38.3,31.0,21.5,0000.0,0004.22,0008.51,0003.98
2021-10-01 03:55:00,,0833.4,5.00,0.00,29.2,28.3,00.0,38.3,31.0,21.4,0000.1,0004.27,0009.02,0004.00
2021-10-01 03:56:00,,0833.4,5.01,0.00,29.2,28.3,00.0,38.3,31.0,21.3,0000.3,0004.29,0009.16,0004.01
2021-10-01 03:57:00,,0833.5,5.00,0.00,29.2,28.3,00.0,38.3,31.0,21.4,0000.5,0004.30,0008.93,0004.02
2021-10-01 03:58:00,,0833.4,5.00,0.00,29.3,28.3,00.0,38.3,31.0,21.4,0001.3,0004.31,0009.02,0004.04
2021-10-01 03:59:00,,0833.4,5.00,0.00,29.3,28.3,00.0,38.3,31.0,21.4,0001.4,0004.32,0009.08,0004.04
